Flag for Guadeloupe Weather past 2 weeks in Basse-Terre, Guadeloupe

Now
79 °F

Passing clouds.


Feels Like: 83 °F
Forecast: 77 / 84 °F
Wind: 2 mph from North

Location: Le Raizet - Guadeloupe

Current Time: Aug 31, 2015 at 10:53:22 PM

Latest Report: Aug 31, 2015 at 10:30 PM


Visibility: N/A

Pressure: 30.04 "Hg

Humidity: 94%

Dew point: 77 °F

Location of Basse-TerreLocation

Historic Weather in Basse-Terre — Graph

°F

Basse-Terre temperature yesterday

Maximum temperature yesterday: 90 °F (at 12:00 PM)
Minimum temperature yesterday: 79 °F (at 4:30 AM)
Average temperature yesterday: 83 °F

Past Weeks' High & Low Weather Summary

 TemperatureHumidityPressure
High91 °F (Aug 17, 12:30 PM)100% (Aug 20, 5:00 AM)30.04 "Hg (Aug 20, 5:00 AM)
Low73 °F (Aug 18, 3:00 AM)43% (Aug 17, 3:00 PM)29.71 "Hg (Aug 27, 3:00 AM)
Average82 °F80%29.94 "Hg
* Reported Aug 16 9:00 PM — Aug 31 9:30 PM, Basse-Terre, Weather by CustomWeather, © 2015

Note: Actual official high and low records may vary slightly from our data, if they occured in-between our weather recording intervals... More about our weather records

Advertising

Basse-Terre weather history for previous 24 hours

 ConditionsComfort  
Time TempWeatherWind HumidityBarometerVisibility
9:30 PM
Mon, Aug 31
79 °FPassing clouds.3 mph94%30.01 "HgN/A
9:00 PM79 °FPassing clouds.5 mph94%30.01 "HgN/A
8:30 PM81 °FWarm.6 mph89%30.01 "HgN/A
8:00 PM81 °FWarm.5 mph89%29.98 "HgN/A
7:30 PM81 °FWarm.6 mph89%29.98 "HgN/A
7:00 PM81 °FPassing clouds.3 mph89%29.98 "HgN/A
5:00 PM84 °FScattered clouds.8 mph79%29.95 "HgN/A
4:30 PM82 °FBroken clouds.7 mph84%29.95 "HgN/A
4:00 PM82 °FPassing clouds.6 mph89%29.95 "HgN/A
3:30 PM81 °FWarm.2 mph89%29.98 "HgN/A
3:00 PM81 °FWarm.3 mph89%29.98 "HgN/A
2:30 PM81 °FWarm.5 mph89%29.98 "HgN/A
2:00 PM79 °FPartly sunny.6 mph89%29.98 "HgN/A
1:30 PM79 °FLight rain. Partly sunny.6 mph94%29.98 "HgN/A
1:00 PM81 °FPartly sunny.2 mph94%30.01 "HgN/A
12:30 PM79 °FHeavy rain. Fog.13 mph94%30.01 "Hg1 mi
12:00 PM84 °FScattered clouds.7 mph74%30.01 "HgN/A
11:30 AM82 °FBroken clouds.10 mph84%30.04 "HgN/A
11:00 AM84 °FPartly sunny.14 mph79%30.04 "HgN/A
10:30 AM82 °FPartly sunny.10 mph89%30.04 "HgN/A
10:00 AM81 °FLight rain. Broken clouds.8 mph89%30.04 "HgN/A
9:30 AM81 °FLight rain. Broken clouds.8 mph89%30.04 "HgN/A
9:00 AM82 °FLight rain. Broken clouds.12 mph84%30.04 "HgN/A
8:30 AM84 °FBroken clouds.9 mph84%30.04 "HgN/A
8:00 AM81 °FBroken clouds.5 mph89%30.01 "Hg6 mi
7:30 AM79 °FBroken clouds.2 mph94%30.01 "HgN/A
7:00 AM79 °FWarm.2 mph94%30.01 "HgN/A
6:30 AM77 °FScattered clouds.1 mph94%29.98 "HgN/A
6:00 AM77 °FMostly cloudy.2 mph94%29.98 "HgN/A
5:30 AM77 °FRain. Partly cloudy.5 mph94%29.98 "HgN/A
5:00 AM77 °FPartly cloudy.No wind94%29.98 "HgN/A
4:30 AM75 °FMild.No wind100%29.98 "HgN/A
4:00 AM75 °FMild.2 mph94%29.98 "HgN/A
3:30 AM77 °FWarm.No wind94%29.98 "HgN/A
3:00 AM77 °FWarm.No wind94%29.98 "HgN/A
2:30 AM77 °FPassing clouds.No wind94%29.98 "HgN/A
2:00 AM77 °FPassing clouds.No wind94%29.98 "HgN/A
1:30 AM79 °FWarm.No wind89%29.98 "HgN/A
1:00 AM79 °FPassing clouds.2 mph89%30.01 "HgN/A
12:30 AM79 °FWarm.3 mph89%30.01 "HgN/A
12:00 AM79 °FWarm.5 mph89%30.01 "HgN/A
11:30 PM
Sun, Aug 30
79 °FPassing clouds.5 mph89%30.01 "HgN/A
11:00 PM81 °FPassing clouds.5 mph89%30.01 "HgN/A
10:30 PM81 °FPassing clouds.5 mph89%30.04 "HgN/A
10:00 PM81 °FWarm.5 mph89%30.04 "HgN/A
Weather by CustomWeather, © 2015

See weather overviewHow to use our weather pages